RH
2 3 2 3 6 6 10 13 18 30 46 66 72 66 69 71 67 56 47 44 41 43 42 35 33 34 36 41 34 26 27 31 31 27 22 16 8 6 8 7 6 6 7 8 8 8 7 7 7 6 6 4 2 2 3 4 4 3 4 5 4 2 2 4 5 3 3 4 3 3 4 6 6 5 9 11 15 18 13 13 14 12 14 13 14 16
2 2 2 3 7 11 15 18 20 31 52 76 89 80 66 68 76 65 51 49 43 44 53 46 38 37 36 44 47 41 36 34 34 33 31 27 17 9 7 8 10 10 9 9 9 9 8 7 7 6 6 5 4 2 1 3 4 3 5 8 8 6 4 4 5 4 3 4 3 4 5 7 6 5 7 9 13 12 8 14 15 9 9 9 9 10
2 1 3 4 9 16 17 18 22 29 42 62 81 83 72 74 85 72 46 46 50 51 64 60 47 43 36 37 48 50 47 44 43 43 40 40 34 23 15 12 12 13 13 12 11 11 10 8 7 6 5 5 5 5 4 3 4 4 4 6 9 8 5 4 6 4 3 5 5 4 5 6 7 6 5 7 9 8 8 13 11 7 7 7 7 7
2 1 3 5 9 12 11 15 21 29 36 42 56 70 76 81 85 72 47 46 54 55 69 68 52 42 31 31 43 48 50 52 53 54 50 49 47 41 31 20 15 16 18 21 23 23 21 17 11 6 5 6 5 5 6 4 3 3 4 5 7 8 5 3 5 4 4 5 5 5 6 6 8 10 8 7 7 7 7 8 8 7 6 6 7 6
2 2 2 4 8 8 12 19 18 23 30 33 41 47 62 83 80 67 55 43 40 50 72 70 47 36 30 32 40 39 43 50 54 56 54 54 52 49 45 36 26 24 26 29 34 38 39 35 25 14 8 5 6 7 6 5 4 3 4 4 6 8 5 3 3 4 5 6 5 5 5 5 7 9 8 7 6 6 6 5 5 6 5 6 6 5
2 2 2 2 6 9 16 20 15 18 21 30 39 28 41 80 81 65 58 46 37 40 53 52 42 45 41 33 38 41 42 45 48 55 58 56 53 52 54 51 43 39 39 38 40 45 46 45 40 32 22 10 5 6 7 7 5 4 5 4 6 8 6 4 4 5 5 5 6 5 5 5 5 6 6 6 6 6 6 6 5 6 6 6 7 9
2 2 3 2 4 13 19 17 13 18 19 26 37 30 38 67 77 73 66 60 53 42 44 45 42 57 61 44 39 42 42 44 45 53 59 56 52 54 55 55 54 53 50 46 46 47 47 45 43 43 40 29 15 7 5 7 7 6 5 4 6 7 6 5 5 6 6 5 6 6 6 5 5 6 6 6 6 7 6 6 6 6 6 7 8 9
2 2 3 2 4 14 18 14 13 17 18 24 34 40 43 48 63 73 66 69 69 54 56 57 47 55 61 53 49 46 45 44 40 43 49 48 49 54 57 59 61 61 58 54 50 49 49 47 45 44 46 44 34 20 9 5 7 8 7 6 6 6 6 5 6 6 6 6 5 5 5 6 7 7 7 8 8 8 6 6 6 6 8 9 10 9
4 2 2 2 4 11 12 12 17 16 16 25 35 45 48 51 63 64 60 72 76 66 67 68 67 64 52 47 51 51 47 40 31 29 35 39 43 50 60 67 69 66 62 59 57 54 52 50 48 47 46 46 44 38 24 10 6 7 7 7 6 6 6 6 6 7 6 6 6 6 7 7 8 7 8 9 7 6 7 7 8 10 13 15 16 15
4 3 3 2 2 9 11 12 20 18 18 27 33 42 51 59 68 67 71 77 75 78 81 74 74 66 49 46 46 45 47 44 35 32 35 40 44 50 61 69 71 69 65 63 61 57 54 53 50 49 49 47 47 47 38 21 10 6 4 5 5 5 6 6 6 6 6 7 6 7 7 7 8 8 8 7 7 10 10 10 13 16 19 20 20 20
3 3 4 3 1 8 11 14 21 20 24 28 26 38 53 61 66 68 75 75 73 87 87 79 82 68 46 44 44 40 44 49 44 38 40 42 44 50 57 63 66 67 68 67 64 59 55 54 52 50 49 48 49 50 46 34 20 11 5 4 3 3 4 5 6 6 5 5 5 6 7 8 8 7 7 10 14 15 13 16 19 20 20 20 21 21
3 3 3 3 2 5 9 18 20 19 30 29 20 34 49 53 60 63 68 69 77 91 75 59 79 76 42 34 43 37 39 54 48 37 42 45 47 52 51 55 61 66 71 71 67 63 59 57 54 51 48 45 45 48 50 46 35 25 18 14 9 6 4 4 5 6 6 7 9 10 9 9 8 8 14 20 21 19 19 22 22 20 20 22 23 23
3 2 4 4 2 2 6 15 18 22 42 39 24 36 43 46 53 55 63 68 71 83 68 48 69 76 39 27 42 35 34 59 53 36 45 51 52 54 50 53 59 61 66 70 71 70 66 63 56 51 48 43 40 42 46 49 47 43 37 31 25 17 11 8 7 9 11 13 12 11 10 9 11 17 24 28 27 24 23 22 22 23 27 31 33 33
4 2 4 4 3 3 2 10 14 21 44 42 27 32 37 47 58 50 57 68 66 71 67 56 66 68 37 20 32 31 31 53 55 45 50 52 53 55 52 57 63 64 64 65 67 67 64 63 58 52 47 40 36 35 37 41 46 51 50 44 37 30 22 16 14 13 13 11 9 9 10 13 18 25 32 34 31 26 22 23 27 31 34 38 40 42
4 3 3 3 4 4 0 6 11 18 36 34 22 27 30 42 64 63 60 67 68 66 66 61 54 50 37 17 16 26 35 46 50 50 52 51 56 62 60 62 70 74 70 63 61 60 60 59 56 54 48 40 37 35 33 32 36 46 54 53 47 39 29 22 17 13 9 8 10 13 16 20 26 32 37 36 27 22 23 26 29 32 35 39 44 47
4 3 3 3 4 4 2 4 10 23 35 32 30 36 29 26 48 67 67 68 70 65 65 64 48 36 29 15 14 27 37 45 48 51 54 54 61 70 66 61 64 69 64 56 54 56 57 55 51 51 48 42 41 39 36 31 29 38 52 59 55 45 32 21 15 12 12 15 17 19 22 27 32 35 34 29 23 23 27 29 30 31 36 44 53 60
4 4 4 4 4 4 4 3 7 20 31 39 43 35 23 21 39 66 75 71 73 72 70 63 49 40 24 7 20 39 43 48 54 55 54 51 60 66 58 50 52 56 55 54 55 55 56 53 50 52 51 47 44 40 35 30 28 32 43 56 55 43 31 23 20 22 21 19 19 23 28 30 31 30 27 24 22 25 27 28 28 29 34 43 55 68
5 7 4 4 5 5 4 3 7 15 26 44 43 26 33 43 46 67 77 68 68 74 77 72 67 69 43 11 23 44 44 48 51 54 56 49 50 54 49 46 50 53 57 60 62 63 63 59 58 61 59 53 48 40 30 27 26 26 31 42 46 41 36 31 28 25 20 19 23 27 29 27 25 25 25 22 21 25 31 34 33 31 34 41 56 77
5 7 5 4 4 6 5 3 6 12 19 38 42 38 49 47 38 57 71 70 72 64 59 65 76 86 62 28 36 45 39 48 51 49 56 52 44 47 50 49 52 56 59 61 63 65 67 66 67 69 65 57 51 39 27 23 21 20 22 28 34 36 34 30 25 22 23 26 26 25 25 23 22 22 22 22 22 28 36 40 41 42 46 52 65 84
4 5 8 8 4 6 8 3 5 10 9 26 51 56 50 43 47 62 60 56 68 69 64 64 70 83 63 30 37 47 42 53 63 59 64 61 48 46 51 50 53 57 58 60 65 66 66 68 71 73 71 63 52 39 31 24 17 16 18 20 23 25 24 22 24 26 27 25 23 23 22 20 19 22 28 34 37 39 40 45 50 54 63 74 84 94
5 5 11 16 8 3 8 5 2 7 6 18 46 53 50 56 63 68 63 52 55 67 73 69 65 74 66 28 17 36 43 47 60 75 82 74 57 48 45 46 51 55 60 64 67 69 69 70 71 73 74 67 49 37 34 27 17 13 13 14 16 17 18 20 23 24 22 23 25 26 23 25 31 39 46 51 56 59 61 65 68 70 80 93 99 100
7 4 10 25 19 3 5 8 3 5 7 14 30 40 56 70 59 57 73 71 65 64 59 65 71 70 75 54 15 18 41 41 42 62 74 73 71 59 41 38 45 51 61 65 64 65 67 70 73 73 76 69 48 36 34 25 16 11 9 10 11 11 14 17 19 22 24 29 31 28 30 38 45 51 54 56 62 72 82 89 90 90 94 99 99 97
12 10 14 26 24 8 3 5 4 6 7 11 22 31 54 73 57 53 72 70 73 79 62 62 72 67 79 73 22 6 31 37 34 43 47 53 66 62 42 35 39 43 51 54 54 57 59 66 73 73 77 72 47 35 35 26 20 18 14 13 12 13 16 19 23 28 31 33 32 32 35 35 35 40 45 51 61 74 86 94 95 94 94 92 95 99
24 19 19 22 21 17 14 11 7 8 7 10 20 25 42 64 52 48 68 65 63 80 75 65 68 74 86 67 18 7 22 24 28 35 33 38 50 51 43 41 40 39 44 45 44 50 54 60 68 70 77 73 49 37 39 32 27 25 21 20 19 20 23 27 31 33 35 34 30 30 28 25 36 51 56 62 69 76 88 91 89 92 93 91 97 101
30 23 26 29 25 24 28 27 20 14 8 6 16 20 27 46 48 48 68 68 55 66 76 71 69 76 85 60 16 8 18 20 29 35 32 37 47 49 47 48 46 41 43 42 38 42 46 50 61 68 75 72 54 43 44 39 33 28 25 24 24 24 27 32 34 33 35 34 34 40 33 26 44 66 73 76 72 71 84 90 90 94 96 94 98 97
28 30 31 32 28 19 19 21 15 10 8 2 7 15 16 26 39 48 62 60 52 65 73 70 72 74 77 63 23 2 11 21 31 39 36 36 48 58 54 48 46 44 45 43 38 38 44 53 63 70 76 74 62 51 46 40 34 31 27 25 26 27 30 34 36 32 33 39 51 63 50 31 39 63 81 89 82 73 76 82 87 93 93 91 91 88
30 37 28 23 23 16 13 14 9 7 10 5 3 7 11 17 23 34 48 42 42 69 71 55 66 75 73 68 39 9 8 15 21 36 43 41 46 54 53 47 45 46 48 47 41 39 48 60 68 71 76 73 62 52 45 38 34 31 27 27 28 30 31 35 34 28 30 43 52 54 46 35 39 58 76 80 72 66 70 79 85 86 84 85 84 81
33 35 24 20 23 23 22 20 16 14 15 14 11 7 7 13 13 19 32 22 27 67 72 46 52 67 74 83 62 24 10 13 17 26 37 46 48 43 46 51 48 46 47 47 45 44 49 58 65 68 70 66 57 51 44 37 33 31 29 29 30 31 34 36 32 26 32 43 40 33 38 42 43 51 54 48 47 60 77 88 85 74 70 74 79 80
28 25 25 31 31 30 32 30 26 27 28 26 23 20 17 17 11 10 16 11 15 42 54 53 58 54 54 65 48 17 8 10 14 19 25 40 48 41 44 50 49 47 45 45 48 51 53 59 61 61 62 59 55 50 44 38 34 31 30 31 32 34 37 37 34 32 37 40 32 30 39 42 41 44 42 39 48 67 81 81 71 65 64 64 66 67
23 22 28 39 38 35 39 39 31 28 37 40 30 21 23 27 21 11 8 8 11 15 23 45 57 42 31 31 17 9 12 7 7 16 20 27 36 39 43 47 49 50 46 44 49 53 59 65 64 59 59 58 53 48 42 38 36 34 34 35 35 36 38 38 39 40 40 37 33 36 41 39 39 42 42 41 50 64 73 69 62 62 60 54 52 50
25 28 28 32 35 35 37 44 44 34 35 44 39 25 22 28 32 26 16 8 8 8 9 22 30 23 20 19 12 12 12 6 8 14 15 24 34 38 43 47 49 51 49 48 50 52 60 66 61 56 59 59 52 46 41 38 38 38 38 38 38 39 41 41 40 40 38 37 38 39 39 39 40 43 50 56 61 69 76 73 70 68 57 50 56 55
27 30 26 24 27 30 33 44 51 44 38 43 44 36 28 27 29 31 30 22 12 8 7 8 10 10 11 12 14 12 7 7 10 8 13 31 38 37 44 48 48 51 53 51 50 52 60 60 51 51 61 59 48 43 40 39 40 42 43 43 41 39 37 35 35 33 30 30 34 36 36 38 40 45 58 71 76 76 74 72 76 76 67 64 74 76
28 28 26 24 22 25 32 41 44 49 57 59 52 40 29 24 22 22 27 29 21 14 10 6 5 6 7 8 9 8 6 6 8 7 14 29 33 34 44 48 46 48 51 49 47 51 61 59 49 53 63 57 47 46 45 43 47 51 52 52 48 39 31 32 39 38 30 30 35 38 40 41 43 49 56 62 66 66 65 68 73 71 68 70 75 81
27 27 25 21 24 29 34 40 46 54 60 53 39 29 20 15 16 15 15 17 16 12 8 5 5 5 6 7 6 7 7 6 7 10 14 23 31 39 47 47 44 44 46 47 47 51 57 53 46 56 67 60 51 52 51 50 56 57 54 54 53 43 33 37 47 46 40 39 40 42 46 47 49 53 54 53 57 61 64 71 76 72 68 66 66 75
23 32 30 21 28 38 39 42 48 52 52 43 34 30 25 19 14 13 19 25 24 15 5 2 4 5 4 4 4 6 7 7 9 10 13 22 33 42 48 48 43 41 44 51 54 53 49 39 35 50 65 62 54 53 54 56 57 53 48 51 53 45 35 38 47 51 49 47 46 48 51 52 54 59 61 63 65 66 69 74 77 76 73 72 73 78
21 34 37 26 28 39 46 52 52 47 45 43 40 37 35 32 24 18 23 33 33 25 12 3 1 2 3 3 4 5 6 8 8 8 12 22 28 37 47 49 45 42 47 54 58 57 52 44 39 43 52 57 57 56 58 60 57 48 44 46 46 38 31 35 46 53 56 55 54 55 55 56 60 63 66 70 71 72 75 75 74 75 75 78 83 85
21 28 31 25 26 35 44 51 54 50 44 44 49 46 41 40 34 24 20 20 20 19 11 3 1 2 1 1 2 3 6 8 7 7 14 22 26 34 46 51 48 46 49 55 58 58 57 53 48 48 51 55 57 57 59 63 60 54 49 47 45 40 36 40 50 57 61 62 60 60 61 62 64 67 70 72 71 71 74 76 79 82 83 85 90 92
28 27 25 23 27 33 33 37 48 53 49 53 59 52 42 38 32 27 25 20 15 12 8 4 1 -2 2 9 8 3 4 8 7 8 16 23 27 34 44 50 50 49 51 54 56 57 57 53 50 53 57 57 58 59 58 58 60 60 55 52 55 55 51 53 58 61 61 61 61 64 65 65 69 73 74 72 71 73 76 81 89 93 93 94 96 98
38 32 27 23 24 25 25 34 56 67 63 64 66 59 52 44 33 33 35 26 14 8 9 12 8 3 13 24 16 4 4 8 7 10 18 25 30 37 44 49 52 51 51 52 53 56 59 55 50 51 54 56 59 61 59 55 54 55 53 51 55 58 58 62 66 65 60 60 65 68 67 70 76 78 77 77 81 84 87 92 96 99 99 97 97 101
37 30 28 23 18 18 23 34 56 74 76 71 68 66 58 45 41 47 44 29 19 14 11 16 17 12 12 15 10 4 6 8 7 13 22 27 33 41 46 49 52 54 54 54 56 57 58 57 54 52 52 54 56 59 60 58 56 56 55 52 51 53 57 62 66 66 64 65 67 68 71 79 82 81 83 87 91 92 94 97 100 100 99 98 99 102
35 26 26 24 17 19 26 31 42 63 75 69 59 58 54 44 43 48 40 26 23 21 14 11 12 12 9 8 9 9 7 6 9 18 27 31 35 44 51 52 53 55 56 56 56 57 58 57 56 54 53 54 55 57 58 59 60 60 57 54 54 57 60 61 62 67 70 70 70 73 80 85 83 82 87 92 94 96 97 99 100 100 99 98 100 100
36 29 27 26 21 19 22 28 37 52 67 70 62 59 58 50 42 40 35 29 26 27 25 18 12 12 11 9 10 10 6 7 14 24 32 35 38 46 53 54 54 54 55 55 55 57 57 58 57 57 57 57 57 58 59 59 60 59 56 57 58 61 64 63 62 65 69 72 78 82 81 79 77 77 81 88 94 97 97 100 102 99 97 97 98 99
32 35 33 27 22 19 20 25 33 43 61 78 80 74 65 52 41 38 40 41 38 37 36 28 17 14 14 12 10 9 8 15 26 33 36 38 41 47 52 54 54 53 54 54 54 55 56 57 58 58 58 58 59 59 59 60 60 59 61 65 66 68 69 64 62 67 74 81 87 85 78 72 68 65 69 81 93 96 96 100 98 92 93 97 98 95
34 35 40 34 25 21 19 20 25 36 58 80 90 87 75 56 43 42 47 50 50 47 44 37 25 17 17 17 12 9 16 31 40 40 37 37 41 47 50 52 53 53 53 54 55 56 57 58 59 58 58 59 60 61 62 64 65 64 66 69 73 75 72 68 72 82 85 81 78 76 74 70 65 65 70 79 85 86 88 90 88 89 97 98 90 80
42 31 34 34 28 24 22 21 23 31 54 82 93 88 76 61 51 50 53 56 56 53 53 52 40 27 23 21 17 20 33 45 48 42 37 37 42 48 51 53 52 50 50 52 54 56 58 59 59 59 59 60 62 63 65 67 67 66 67 69 73 75 74 76 84 88 81 70 66 69 73 70 69 75 79 77 77 78 80 84 87 90 88 77 64 55
55 47 42 36 31 29 27 27 29 35 57 87 96 83 70 64 61 59 58 59 57 52 53 55 49 37 30 27 30 41 50 53 54 53 47 45 48 51 52 53 51 50 51 53 55 59 61 61 60 61 63 65 67 68 68 70 71 74 77 79 80 82 86 87 84 76 70 67 67 69 68 63 61 67 72 74 76 77 78 81 82 75 62 52 48 42
58 54 48 38 33 34 33 33 39 52 74 95 94 80 70 65 64 66 63 58 55 51 51 55 55 46 37 36 44 55 60 59 61 60 56 54 56 56 55 55 56 57 58 59 61 63 66 65 65 67 68 70 74 75 75 76 77 78 82 84 80 79 87 87 77 69 68 70 71 69 63 54 54 63 70 73 75 72 70 68 62 52 45 42 41 36
50 43 39 36 38 42 43 43 50 66 87 97 87 76 72 67 64 66 65 58 56 56 55 56 58 52 46 46 53 60 62 60 61 62 64 66 65 63 62 62 62 62 63 64 65 66 68 69 69 70 72 75 78 79 76 75 74 72 73 74 68 67 73 75 71 71 73 73 72 69 58 49 52 61 68 71 69 63 57 52 46 41 40 37 36 35
44 37 31 35 43 43 41 47 62 77 92 95 84 76 78 75 66 63 63 61 60 61 61 62 63 59 54 52 56 58 59 61 65 71 77 79 79 77 72 68 67 68 68 67 65 64 67 69 70 71 74 76 78 77 74 70 67 65 64 66 66 67 72 74 74 75 75 72 69 63 52 47 51 57 61 64 61 53 46 43 40 40 39 38 37 37
46 40 35 37 42 38 35 49 74 90 96 96 89 82 82 81 72 65 67 67 61 60 66 71 70 65 59 56 58 63 67 73 79 83 85 87 89 86 80 75 75 75 72 71 71 71 71 72 72 72 75 75 73 72 70 67 65 66 68 72 74 75 77 78 78 76 73 67 61 53 47 46 47 48 51 53 51 45 42 41 41 41 42 41 39 38
48 45 44 44 42 38 36 50 76 96 99 98 96 90 86 83 76 68 68 67 60 58 70 82 84 80 74 72 76 81 83 85 87 87 84 82 82 80 78 78 79 78 77 76 75 75 77 78 77 75 73 69 65 64 65 67 70 73 76 79 81 79 76 75 75 73 68 59 49 43 43 44 43 42 43 47 46 43 40 39 41 43 44 43 42 41
Wind_Speed
29 28 25 22 21 20 19 17 19 24 24 20 18 18 17 17 16 18 22 23 22 21 20 20 19 18 16 13 13 14 13 11 9 8 6 6 6 7 7 7 8 9 9 9 9 8 8 7 8 8 8 8 9 9 10 9 9 9 9 10 10 10 9 9 9 9 9 7 7 7 6 5 5 4 4 4 4 4 3 4 5 5 5 7 8 8
34 29 25 23 21 20 21 20 21 24 25 22 19 19 20 20 18 22 26 25 24 23 21 22 21 19 18 16 15 14 14 13 11 10 7 6 6 7 7 8 8 8 8 9 9 8 8 8 8 8 9 9 9 10 10 10 9 9 10 11 12 12 11 11 11 10 9 9 8 7 6 5 6 5 5 5 5 5 5 5 6 7 7 8 10 10
36 30 25 26 25 25 25 24 23 23 25 24 22 20 21 19 19 26 30 27 26 25 23 23 22 20 20 19 17 16 15 13 12 10 9 7 6 6 7 8 8 8 8 8 8 8 7 8 8 8 9 9 10 10 10 10 10 11 12 13 14 13 12 12 11 11 10 10 9 8 7 7 7 7 7 7 6 7 8 7 8 8 9 10 11 12
37 31 27 29 30 28 26 25 24 25 27 29 27 24 23 21 21 24 29 29 28 26 24 24 23 22 22 20 19 18 16 14 13 12 11 10 8 7 7 8 8 8 7 7 7 7 7 7 8 9 10 10 10 10 10 11 12 12 13 13 14 14 13 13 12 12 12 10 9 9 8 8 8 8 9 8 8 9 10 11 11 11 11 13 14 15
40 36 31 32 33 30 27 28 29 29 30 31 33 32 29 23 21 24 29 30 29 28 26 25 25 24 22 22 21 20 19 16 15 14 12 12 11 10 8 9 9 9 9 8 8 7 7 7 8 9 10 10 10 11 11 11 12 11 11 12 13 14 14 14 13 13 12 11 10 10 9 9 9 9 10 10 11 11 13 14 15 15 15 17 18 20
43 41 36 36 35 30 32 34 32 30 30 31 34 37 34 23 21 27 29 29 31 31 28 27 27 24 22 22 21 21 21 19 17 14 13 13 12 11 10 10 10 10 11 11 10 10 9 9 9 9 10 11 12 13 12 12 12 11 11 11 12 13 14 15 14 13 12 12 12 12 11 11 11 11 12 12 13 14 16 17 18 19 20 21 23 24
46 45 39 37 35 33 37 38 34 32 32 33 33 35 36 28 25 28 28 27 29 30 29 30 30 25 22 23 24 24 22 21 20 18 15 15 14 12 12 11 11 12 13 13 13 12 11 11 11 11 12 13 14 15 14 13 13 12 13 12 12 14 15 15 14 13 13 13 13 13 13 13 12 13 14 15 16 17 19 20 21 22 23 24 24 25
48 46 41 38 37 39 42 40 35 34 34 33 31 33 38 36 33 32 30 27 28 30 30 31 31 28 25 25 25 26 25 22 21 21 19 18 16 14 13 12 11 12 13 13 14 13 13 12 12 13 14 15 16 16 14 14 14 15 15 14 14 15 16 16 14 14 14 14 14 15 16 16 15 16 16 17 18 19 21 22 22 22 22 22 22 22
47 46 42 38 40 43 44 40 38 37 34 33 34 36 40 40 37 37 34 29 28 30 31 30 30 31 29 27 26 25 25 23 22 22 20 18 17 16 15 13 12 12 12 13 14 15 14 14 13 14 15 17 17 15 14 15 16 17 16 16 15 16 17 16 15 15 15 15 16 17 18 18 18 18 19 19 20 21 21 21 20 20 19 20 19 19
47 47 44 42 44 47 45 42 41 40 36 36 37 39 41 41 39 39 37 32 29 29 31 30 30 33 31 27 28 27 24 23 23 21 20 18 18 17 17 16 14 13 13 13 14 15 15 14 14 15 16 17 17 15 16 17 17 17 17 17 17 18 18 17 16 16 17 18 19 19 20 20 20 21 21 22 21 21 20 19 19 18 18 18 18 18
47 48 48 46 46 49 48 45 45 44 41 39 39 38 40 41 41 42 41 38 33 31 31 30 28 31 33 29 29 29 26 22 21 20 21 21 20 20 19 18 17 15 14 14 14 15 15 16 15 16 16 17 18 17 18 18 17 18 18 19 19 19 19 18 18 18 19 20 21 21 22 22 22 23 23 21 20 19 19 18 18 18 18 18 18 18
45 47 49 49 48 50 50 50 49 46 43 42 39 39 41 42 43 43 43 44 41 35 34 34 30 32 37 32 29 30 26 21 22 23 24 24 22 22 22 20 19 18 16 16 16 17 17 17 16 16 16 17 18 18 19 20 19 19 20 21 21 21 20 20 19 19 20 21 22 22 23 23 23 23 22 20 19 19 19 18 18 18 18 19 19 19
43 45 48 50 50 51 52 54 53 49 47 46 43 44 46 44 44 45 44 47 50 43 37 36 34 37 41 34 30 31 25 21 25 25 24 24 23 23 23 22 22 22 21 20 19 20 19 18 17 17 17 17 18 19 20 21 21 21 21 22 22 21 21 20 20 20 22 22 22 22 22 22 22 21 20 19 18 18 18 17 18 18 18 19 19 20
42 45 47 52 53 53 54 55 55 52 52 52 48 49 50 45 43 47 47 46 49 46 41 39 38 38 42 37 29 25 21 22 25 25 25 25 23 23 22 22 24 24 23 23 23 23 22 20 18 18 19 18 17 17 19 21 21 21 21 21 21 21 20 20 20 21 22 21 21 20 21 21 21 20 20 19 18 18 18 18 18 18 18 19 20 21
40 44 45 49 53 55 55 56 55 54 55 54 50 50 52 48 41 41 43 41 41 40 38 42 46 44 43 39 28 22 22 26 27 26 27 25 21 21 22 24 25 24 24 25 24 23 21 20 19 18 18 17 15 15 17 17 18 19 20 20 20 20 19 20 21 21 20 20 20 20 20 20 20 20 19 18 18 19 19 20 20 19 19 19 20 20
38 40 42 46 51 55 56 55 55 57 58 56 52 53 56 52 43 36 34 33 32 34 35 39 45 47 45 38 28 24 26 30 30 29 28 23 20 23 24 24 26 25 24 22 21 20 19 18 17 16 15 14 13 13 14 15 14 15 17 19 19 19 19 19 19 19 20 20 19 19 19 19 19 19 19 19 20 20 20 20 21 21 21 22 22 22
36 39 43 46 49 53 56 56 57 60 61 59 58 58 55 52 47 38 32 31 30 30 33 37 38 38 43 39 26 26 31 33 32 29 26 23 24 26 23 19 21 21 17 14 14 15 16 16 14 14 14 14 13 13 14 14 14 14 16 18 19 19 18 18 18 19 20 20 19 18 18 19 19 20 21 21 21 20 20 20 22 23 24 24 24 24
35 39 44 45 47 52 56 57 58 60 62 63 62 58 53 54 54 44 35 36 37 33 31 33 29 26 33 34 27 31 36 36 34 30 26 25 26 25 20 12 12 13 11 12 13 14 16 16 14 14 15 15 14 14 13 13 15 16 16 17 18 18 17 18 19 19 18 18 18 17 18 19 20 21 22 22 22 22 21 21 23 25 26 27 26 25
36 38 43 44 46 52 55 57 59 61 63 64 63 60 58 61 60 52 43 38 37 40 38 36 30 24 25 26 26 32 35 33 32 30 25 25 25 24 21 15 12 12 12 14 16 17 17 17 17 16 17 17 16 14 12 13 16 16 16 17 17 18 18 19 19 17 16 17 16 16 17 18 19 21 21 22 23 23 23 24 25 27 28 28 28 27
36 36 40 44 46 50 54 58 61 62 63 63 65 66 65 63 59 54 53 47 38 35 36 35 34 28 25 27 29 32 33 33 30 25 21 23 24 25 23 19 17 17 15 15 18 21 20 19 20 20 19 19 17 14 12 12 13 15 16 16 16 17 19 18 16 15 15 15 14 14 15 16 18 19 21 22 23 23 24 25 27 28 29 29 30 31
37 36 36 41 46 48 54 59 59 61 63 64 69 71 67 65 63 56 53 52 47 41 33 30 33 31 25 27 32 33 34 38 34 23 21 24 24 25 24 22 21 19 17 17 19 21 22 22 23 22 21 21 18 15 13 12 12 14 15 15 16 17 18 16 15 14 13 12 11 12 13 15 17 18 22 24 23 24 25 26 28 28 29 30 32 33
36 36 34 37 43 47 51 55 57 59 62 64 69 71 67 66 69 63 51 43 43 48 44 32 32 30 22 25 32 36 35 36 33 26 24 23 22 22 24 25 24 22 19 19 20 20 22 23 25 25 24 23 20 15 13 12 11 12 13 14 16 17 16 14 13 12 10 10 10 10 12 15 17 19 23 24 25 27 28 30 31 31 32 34 36 37
32 35 35 35 41 45 46 51 56 58 60 62 65 68 69 69 71 65 56 46 38 40 45 40 36 33 25 25 29 35 37 36 33 32 31 26 23 23 23 24 23 21 19 20 23 22 23 24 26 27 25 24 21 16 14 13 11 11 11 13 14 14 14 13 12 11 10 9 8 9 12 16 18 20 22 23 23 25 28 32 32 32 35 37 39 42
31 35 35 35 39 43 42 45 50 54 58 60 61 64 67 71 73 66 58 57 50 41 39 42 42 35 29 29 27 29 35 38 36 35 33 28 24 22 20 20 20 18 16 18 22 25 26 26 27 27 25 25 23 17 15 15 14 12 11 11 12 13 13 12 11 10 9 9 10 10 14 17 19 21 22 21 22 24 28 31 31 32 36 37 40 46
33 36 34 33 38 41 41 40 43 50 59 61 61 64 65 68 72 69 64 66 65 51 40 42 46 38 30 31 31 28 28 30 32 32 30 26 21 19 19 19 19 18 15 15 19 23 26 27 26 25 25 26 24 18 16 18 17 15 12 11 13 12 12 11 11 11 10 12 14 14 17 20 22 24 21 19 23 27 27 28 29 32 36 39 40 42
35 35 36 36 38 41 43 43 45 52 59 62 63 65 66 67 68 69 70 73 71 61 50 48 47 39 35 39 42 35 28 27 28 28 27 25 21 20 22 20 18 17 17 17 17 19 23 23 23 24 26 27 25 20 18 18 18 17 15 14 15 14 13 12 12 14 13 14 17 20 22 23 25 28 28 28 32 34 32 32 34 36 38 41 37 33
34 36 40 40 38 39 40 41 45 51 55 60 63 65 65 67 68 69 71 75 73 66 62 60 51 38 36 42 46 43 35 30 30 28 27 26 24 23 22 18 16 17 18 19 18 18 20 21 22 25 27 28 27 22 20 19 18 18 17 17 17 16 16 14 16 18 15 16 20 23 24 25 25 26 30 35 39 40 37 36 38 41 43 43 38 32
36 39 41 39 37 38 39 39 41 47 51 53 56 60 61 64 68 69 71 74 73 66 64 68 65 54 42 36 39 44 38 31 32 31 27 26 25 24 20 15 14 16 18 21 21 20 21 22 23 26 27 29 28 25 22 20 19 19 19 20 20 19 18 18 19 20 18 20 24 23 24 27 26 24 26 33 39 41 41 38 39 42 44 43 40 37
39 41 40 38 38 39 39 40 40 42 47 49 50 53 55 58 64 68 71 73 73 72 69 67 68 69 62 49 44 45 38 32 32 31 28 28 27 25 21 17 16 18 18 20 22 24 24 24 25 27 27 29 28 26 24 22 21 20 21 22 22 22 21 21 21 21 21 25 27 26 27 30 31 30 32 36 38 38 40 40 39 40 41 42 41 39
40 40 40 40 41 40 40 41 41 42 44 46 50 53 53 53 56 62 68 71 71 73 73 68 68 71 71 64 56 51 46 39 35 32 32 32 30 28 24 20 19 21 20 20 23 26 27 27 28 28 27 28 28 27 26 24 22 22 23 24 25 25 24 24 23 22 25 28 29 29 32 34 35 36 37 38 38 37 39 41 40 39 40 41 42 41
40 39 40 41 41 41 40 39 40 42 44 44 47 51 53 52 51 53 59 64 68 70 70 71 74 74 69 63 57 55 53 47 40 37 35 34 32 29 25 21 21 22 22 23 25 27 29 31 31 29 28 28 28 27 27 25 23 24 26 27 27 26 26 26 26 27 29 30 29 31 34 36 37 38 37 36 37 39 42 45 45 44 44 44 45 46
42 41 41 42 42 42 41 39 39 39 41 43 45 47 50 52 53 53 53 56 61 66 68 70 73 73 70 64 57 55 53 47 44 41 36 34 33 29 25 23 24 26 25 25 27 29 32 34 32 28 28 29 29 28 28 27 26 27 28 28 28 27 27 27 28 29 30 29 29 32 35 36 37 37 36 35 36 38 42 45 47 47 48 48 48 49
43 43 43 43 43 43 41 40 38 37 38 41 42 43 47 51 54 55 55 55 57 60 63 67 69 70 69 64 57 55 51 45 43 43 38 34 32 28 25 26 29 30 28 26 26 29 33 35 32 30 30 30 30 30 30 30 29 29 30 32 31 30 29 28 27 25 25 26 29 33 36 37 38 39 39 40 40 41 42 45 47 48 49 50 51 52
45 44 44 44 43 43 42 40 38 38 40 40 38 39 43 46 50 54 57 58 60 61 62 65 67 65 63 62 58 54 51 46 43 43 39 34 32 29 28 30 33 33 29 26 26 29 33 35 34 33 32 31 32 33 34 33 32 32 34 35 35 34 32 30 27 26 26 28 32 35 37 39 41 43 44 46 46 46 46 48 50 51 52 53 54 54
46 44 45 45 44 44 43 42 41 41 39 37 35 35 38 42 45 50 53 53 56 60 63 65 65 62 61 62 59 55 52 47 43 43 40 38 37 34 31 33 36 34 31 28 28 31 34 34 33 34 34 34 35 36 36 36 35 36 38 38 37 37 34 32 30 29 29 31 34 37 40 43 45 47 49 51 51 51 51 51 52 53 54 56 57 56
48 46 46 46 45 45 44 43 43 40 37 36 35 34 37 42 44 47 51 52 53 56 60 63 62 60 59 60 57 54 51 45 43 43 42 41 40 38 35 36 36 35 34 32 31 33 34 32 30 32 34 36 39 40 40 40 39 38 39 39 38 38 36 36 35 34 34 35 37 40 42 45 47 49 50 52 52 52 53 53 53 54 55 56 58 58
50 49 48 46 45 45 45 45 43 41 38 37 35 36 39 42 43 46 50 53 54 57 59 61 60 57 56 56 54 53 51 46 43 43 42 42 41 41 40 39 39 38 36 33 33 35 36 34 31 33 36 39 41 42 42 43 43 41 40 40 40 39 38 38 38 38 39 40 42 43 45 46 48 49 51 53 53 53 54 55 56 56 56 57 58 58
54 52 49 47 46 46 46 46 44 41 38 36 37 39 40 41 43 45 48 51 53 55 57 58 58 56 53 51 52 53 51 46 43 42 42 42 41 42 43 41 40 41 39 36 35 36 38 37 35 36 39 42 43 44 43 44 46 45 43 43 44 43 41 40 40 41 43 44 46 46 47 48 49 50 52 55 55 55 56 57 58 58 58 59 60 60
57 55 51 50 50 49 47 46 45 42 40 39 40 39 38 41 43 44 48 49 49 51 52 52 53 53 49 47 49 52 51 46 42 42 43 42 43 45 45 43 42 42 42 39 38 38 39 39 38 39 43 45 47 47 46 46 47 46 43 43 45 46 46 46 44 43 45 47 48 48 48 49 50 52 55 57 58 58 58 59 60 59 59 62 64 62
56 55 54 53 51 48 46 48 47 43 41 40 39 38 39 41 42 44 48 47 44 45 48 49 50 50 48 48 49 51 50 46 43 43 42 43 45 46 45 44 43 43 42 41 40 39 40 41 41 42 45 47 48 49 49 50 50 48 46 46 46 48 50 48 45 44 45 47 48 49 50 50 51 54 58 60 60 60 60 60 60 60 62 66 66 60
55 55 53 53 51 48 48 50 48 46 44 41 38 39 41 41 41 44 46 43 42 44 47 49 51 50 49 49 50 50 49 44 43 43 42 44 47 47 45 44 42 42 41 41 41 40 41 42 44 45 46 48 50 50 51 52 53 52 50 49 49 51 50 48 45 44 45 48 50 51 50 51 53 56 59 62 62 61 62 62 63 63 65 66 62 57
55 54 53 52 51 49 49 50 50 49 48 44 39 38 39 41 43 44 42 40 42 43 43 46 50 50 49 50 50 50 46 42 43 43 43 46 49 49 46 44 42 42 42 41 41 42 42 43 44 46 47 48 49 51 52 53 54 54 52 51 52 52 49 46 46 46 47 49 52 53 52 53 55 57 60 62 62 61 63 65 65 65 64 62 58 56
54 52 51 51 50 49 50 51 51 50 48 43 38 38 40 42 42 42 40 39 40 41 40 42 46 48 47 48 50 48 44 41 43 44 44 47 51 50 48 45 43 44 44 43 43 44 44 45 46 46 47 48 49 50 52 53 54 53 52 52 51 49 47 46 47 48 49 50 52 53 54 56 57 59 61 63 62 63 64 64 62 61 59 58 56 54
53 53 51 48 46 48 49 48 47 47 45 42 40 40 42 43 41 40 39 38 37 37 37 38 41 43 45 46 47 45 42 41 43 44 44 47 49 50 48 46 45 45 45 45 45 45 44 45 45 45 46 47 48 47 48 49 51 51 52 52 50 48 46 45 46 49 50 52 53 54 56 57 58 60 63 63 62 63 62 58 55 54 53 52 49 45
48 52 50 46 43 43 44 43 42 43 42 41 41 41 42 42 40 39 39 38 36 34 33 33 36 39 42 43 43 42 41 41 43 43 44 45 47 47 45 45 46 47 46 47 47 46 45 44 44 44 45 45 46 46 46 48 49 51 53 54 54 52 49 45 46 50 53 55 56 56 57 57 58 60 62 62 61 59 56 51 48 47 45 43 41 39
42 43 44 44 43 41 40 39 41 41 40 40 41 41 40 40 40 38 38 39 37 35 34 32 33 36 38 40 40 41 41 40 40 40 42 42 43 43 43 44 45 46 46 47 46 45 44 42 42 43 42 42 44 45 45 46 49 51 52 51 50 50 48 46 48 52 55 56 56 55 56 58 58 59 58 57 54 51 46 43 41 40 39 38 39 38
41 39 38 39 39 38 36 36 37 38 38 40 41 40 38 39 40 39 38 38 36 36 35 33 33 35 37 38 40 40 38 37 37 38 40 40 41 42 43 44 45 45 46 46 46 44 42 41 41 41 41 42 43 43 44 45 46 47 46 45 45 45 45 47 51 54 56 56 55 54 54 56 56 56 52 48 45 42 40 39 39 38 38 38 39 39
40 40 38 35 33 33 31 31 34 37 39 41 42 41 39 41 42 42 39 37 36 36 34 33 33 34 36 38 41 39 37 37 39 40 41 42 42 43 44 44 45 46 47 47 47 45 44 44 44 43 43 44 45 44 44 44 43 42 42 44 45 46 46 49 53 54 55 55 54 54 55 54 52 50 46 43 41 40 41 41 40 39 38 39 40 41
36 38 37 33 31 30 29 29 34 38 39 40 41 41 40 41 43 44 42 39 39 38 36 34 34 35 36 39 40 40 40 41 42 44 43 42 41 42 44 45 46 47 48 48 48 49 50 50 49 48 47 46 45 43 42 41 41 42 43 45 46 47 48 51 53 53 54 54 54 55 54 51 48 47 45 43 42 43 43 43 42 41 41 41 42 43
33 33 33 33 32 31 28 29 33 37 38 35 36 40 42 41 43 44 42 39 40 40 39 39 39 39 39 40 40 40 42 42 43 43 41 38 37 39 41 44 46 47 47 48 50 51 53 53 52 50 48 45 42 40 39 40 41 42 44 46 47 47 48 50 52 53 53 53 54 54 51 47 46 46 46 46 46 45 45 44 43 43 44 44 44 45
32 31 30 30 29 27 25 27 32 36 35 32 33 39 43 43 44 44 42 40 40 40 40 42 44 44 45 45 42 41 42 40 39 39 38 36 36 37 39 41 43 46 47 48 49 51 53 53 50 45 42 40 38 38 40 41 43 43 44 46 47 47 47 49 50 51 51 51 51 50 47 46 46 46 46 47 47 47 46 46 46 46 46 46 47 47
Wind_Direction
224 229 230 226 223 220 215 213 203 192 191 196 200 204 201 199 213 211 194 187 181 176 185 192 193 195 190 180 170 169 170 169 172 174 169 172 174 173 172 173 175 176 180 181 180 181 182 185 191 197 205 211 213 216 220 223 221 223 229 235 238 238 238 240 237 232 229 220 218 222 218 228 240 233 237 244 254 269 282 306 317 321 323 322 319 327
224 227 232 230 221 215 215 210 202 195 194 198 202 209 204 193 206 216 202 187 180 180 187 193 194 196 192 184 179 180 180 178 178 177 175 180 190 192 189 189 190 189 190 192 191 191 192 193 197 202 207 213 217 220 225 231 233 234 235 238 240 239 235 236 234 229 227 222 216 219 209 212 235 236 234 243 258 275 284 299 306 307 316 319 318 324
229 225 227 229 218 211 210 205 200 195 194 200 203 207 207 203 209 212 205 192 181 182 189 193 192 195 196 192 187 185 185 184 184 184 184 185 192 205 212 210 208 206 200 198 200 201 207 211 211 211 213 217 221 224 228 232 235 236 237 239 242 241 234 231 230 225 225 222 217 218 213 213 232 244 248 252 263 279 288 294 297 304 313 314 313 314
234 227 223 226 219 212 205 200 200 196 194 197 197 200 203 209 214 206 203 197 185 186 195 197 196 201 205 201 193 188 187 185 185 188 191 191 197 206 221 228 226 223 216 210 209 212 219 225 225 224 223 224 227 230 230 231 233 236 237 239 242 242 236 230 226 223 225 224 224 229 229 228 237 248 258 267 275 284 293 298 301 306 309 306 303 301
234 228 222 224 222 215 206 203 202 199 197 194 193 194 193 204 215 203 203 206 198 195 200 201 204 210 211 206 201 196 191 188 188 191 194 197 204 210 219 231 233 235 236 232 228 228 230 231 233 234 233 234 235 235 234 234 234 237 238 239 240 240 237 233 228 225 228 228 232 241 244 245 253 264 272 278 283 289 293 296 299 302 301 298 296 296
233 228 221 222 224 216 211 210 204 199 198 195 196 192 187 200 215 204 207 213 209 205 205 208 211 215 218 215 211 206 197 191 191 191 197 203 205 208 217 228 233 238 243 245 244 242 241 238 238 238 238 237 237 237 238 238 237 236 236 233 232 235 235 236 232 228 231 234 239 247 251 254 260 268 274 278 283 287 288 291 295 297 296 295 295 295
233 230 222 222 223 215 216 216 206 202 199 195 197 195 194 202 207 207 210 212 213 214 212 215 216 216 222 220 219 219 207 197 198 194 197 208 207 207 217 224 231 238 243 246 247 247 247 245 244 241 239 239 239 239 239 241 239 235 233 229 226 229 232 233 232 231 235 239 244 251 256 260 262 266 271 276 281 284 287 292 294 295 295 294 294 294
233 232 225 222 221 215 219 219 210 207 202 194 194 199 202 201 201 209 212 210 216 219 217 220 222 222 223 221 222 224 212 204 207 206 207 213 210 209 215 220 227 235 240 243 245 247 248 248 247 246 244 243 242 242 242 242 241 237 235 230 226 227 231 232 233 236 239 243 248 252 258 262 266 269 273 277 281 285 289 292 294 295 296 296 296 296
236 234 228 224 222 219 220 220 215 211 204 196 195 199 202 199 201 209 214 217 220 222 223 221 224 228 225 223 225 225 221 222 227 224 222 222 215 211 212 214 221 229 235 241 245 246 246 248 250 249 248 247 246 245 243 241 241 240 239 236 232 231 233 235 237 240 244 247 250 252 256 262 267 271 275 279 283 287 290 292 295 297 298 300 300 298
236 233 229 225 223 222 222 220 217 214 207 203 200 199 199 199 202 208 214 222 224 228 230 222 224 230 227 227 229 231 234 237 238 234 229 224 217 214 212 210 215 223 229 237 242 244 246 247 250 251 251 250 248 242 238 239 241 243 243 241 239 237 237 238 240 244 247 250 253 255 259 264 270 275 279 282 286 289 291 293 296 298 298 299 298 297
238 233 227 224 223 223 222 220 219 215 210 208 203 198 199 201 205 209 214 218 221 229 228 219 225 232 228 227 229 236 241 240 240 238 233 227 219 217 217 214 215 219 225 232 238 242 245 246 247 251 253 253 250 242 236 237 239 242 244 245 245 243 243 243 244 247 250 253 257 261 265 269 274 279 282 285 287 289 291 294 295 295 294 293 293 293
242 237 229 225 223 223 222 220 220 218 212 210 205 200 203 207 209 212 215 215 217 226 226 221 227 234 233 229 227 236 244 238 233 235 237 233 221 218 221 220 217 218 223 228 234 240 243 246 248 250 253 254 253 247 241 238 235 237 240 243 246 248 248 248 250 252 254 257 261 265 269 273 276 280 282 284 287 288 290 291 292 291 289 289 289 290
246 243 234 228 225 224 223 220 220 218 213 212 209 208 210 212 213 215 218 218 219 225 227 225 229 236 237 232 226 234 240 234 230 231 233 231 224 221 220 221 222 222 225 227 230 236 239 243 247 250 253 254 254 252 248 245 242 240 241 243 247 249 251 253 254 256 258 261 265 268 272 274 276 278 280 282 284 286 287 288 287 287 286 286 287 286
247 245 236 230 227 226 225 223 220 217 214 213 210 211 213 213 215 217 219 220 223 227 229 229 231 234 237 234 226 229 235 230 228 227 224 227 232 228 220 221 228 230 233 233 234 238 238 240 246 251 254 256 257 257 255 253 250 248 248 249 250 252 254 255 255 257 260 263 267 270 274 275 276 278 279 281 283 284 285 285 285 284 282 283 284 285
246 246 241 235 230 227 226 225 223 219 217 216 212 213 215 212 213 218 221 224 228 230 232 234 235 234 236 236 226 220 225 223 221 218 219 225 231 229 223 222 229 235 239 243 247 249 245 242 245 250 256 260 263 266 266 263 257 253 251 252 254 254 254 254 255 258 260 264 269 273 275 277 278 280 281 282 283 284 285 286 286 283 281 279 279 282
248 247 243 238 233 230 228 225 223 220 219 218 215 217 218 214 213 219 225 229 232 235 235 237 241 239 237 237 226 216 216 215 213 211 215 219 215 219 227 230 233 238 244 251 255 253 248 245 247 252 260 267 272 277 277 271 262 253 248 248 251 251 250 251 255 257 261 265 270 273 274 277 279 281 282 282 283 284 285 285 284 283 280 277 278 280
250 246 242 237 233 231 229 226 222 220 220 219 217 219 221 218 217 220 228 228 226 231 233 237 247 244 238 236 224 209 206 204 205 206 211 212 207 215 229 236 236 239 250 263 260 253 251 252 258 265 270 276 283 287 282 274 265 253 245 243 245 247 249 251 254 257 262 267 269 270 272 276 279 281 282 282 282 282 282 283 285 286 285 284 286 288
247 244 244 240 233 230 229 227 224 221 220 220 219 220 222 222 220 219 228 231 227 229 228 231 242 242 235 231 213 202 204 203 202 203 205 208 208 215 224 227 228 231 244 259 260 261 264 266 273 278 279 284 290 291 284 273 264 255 247 244 244 247 250 252 255 258 262 263 263 266 272 277 280 282 283 283 284 282 283 287 290 292 293 294 295 294
245 240 243 243 234 229 229 226 225 223 220 221 222 221 221 224 223 219 221 225 227 234 232 230 238 240 230 222 208 205 206 204 204 202 205 214 212 213 221 225 229 234 241 252 261 267 270 275 281 281 284 291 294 292 283 270 262 255 251 248 248 250 251 251 253 255 256 257 261 268 272 276 279 281 284 287 289 290 291 293 294 294 296 297 297 294
247 239 239 242 236 228 228 227 224 224 222 220 221 222 221 225 227 224 224 223 223 231 235 234 240 242 231 219 211 207 203 198 199 200 212 225 216 208 215 223 231 237 240 250 260 263 264 270 276 278 284 291 293 289 280 275 266 255 249 246 246 246 245 245 246 248 251 256 263 267 271 277 282 285 290 294 297 301 300 298 295 294 294 295 296 294
248 241 234 240 240 231 227 228 226 225 224 220 219 222 222 223 226 225 228 230 228 227 230 234 239 241 246 239 219 206 203 200 197 202 218 224 215 209 212 217 224 229 232 244 256 260 260 262 266 272 278 284 288 284 279 281 270 253 244 237 235 236 235 236 238 241 247 252 257 266 279 289 293 296 300 300 301 303 301 298 293 289 288 290 291 289
245 243 231 232 240 237 230 231 229 226 227 224 221 223 221 222 226 224 225 230 230 230 230 233 238 234 243 252 226 205 203 202 203 214 220 214 215 220 216 213 217 220 223 235 247 255 259 258 260 266 272 278 282 278 274 274 260 244 236 229 229 230 228 227 227 228 232 238 253 277 295 301 303 303 302 302 302 300 298 298 295 288 285 287 287 285
242 242 233 225 235 240 234 231 230 227 227 226 225 225 222 224 226 224 224 225 225 230 230 230 239 234 231 241 221 201 202 204 208 220 219 211 215 221 214 208 214 220 225 235 241 247 254 256 258 262 267 274 277 271 265 263 251 238 233 229 227 222 215 212 211 214 223 238 263 289 300 305 307 303 300 302 305 302 297 299 300 294 291 291 287 285
237 238 236 228 231 238 235 231 230 228 227 225 225 226 224 225 228 226 227 229 227 229 228 227 234 232 226 229 216 199 203 207 211 220 220 215 216 220 218 217 226 232 235 241 241 241 245 249 255 259 265 272 275 268 259 255 251 249 246 236 225 217 210 208 212 221 236 258 275 292 304 309 304 297 298 300 299 297 293 296 300 298 299 298 286 280
235 236 238 231 228 232 231 227 225 228 228 225 224 225 224 225 227 227 229 231 230 230 229 229 233 228 222 228 227 216 207 206 211 219 222 219 219 228 234 232 237 243 247 249 244 241 244 248 254 259 263 269 272 269 259 254 253 254 250 236 227 224 222 221 231 241 255 271 278 290 305 310 302 292 289 288 292 295 291 293 303 305 307 307 291 280
235 235 237 234 231 233 234 232 229 230 232 229 226 227 225 224 225 226 228 231 231 231 229 229 234 234 232 236 238 232 216 208 214 216 216 217 215 222 233 235 242 254 261 260 250 245 247 250 253 256 261 267 271 269 261 255 252 249 243 234 229 231 234 239 250 256 267 279 280 285 295 305 304 289 278 279 291 296 291 291 302 309 314 317 307 295
236 234 238 239 237 238 240 240 239 236 236 234 231 230 228 226 225 225 228 230 230 231 233 231 231 234 236 237 242 239 223 215 222 218 211 213 211 214 227 239 248 254 259 260 255 249 248 249 252 255 260 265 267 266 260 254 249 244 238 233 231 237 244 250 260 266 275 282 279 282 290 301 307 292 279 281 288 290 289 292 300 305 310 318 319 316
234 235 241 242 241 241 239 240 240 239 237 236 235 234 231 230 228 226 228 231 230 230 235 237 235 233 230 230 236 236 225 217 225 224 214 213 215 216 220 231 246 248 248 252 255 254 249 248 251 254 258 262 263 263 259 253 248 244 240 239 240 246 252 257 265 272 278 277 276 284 292 296 301 300 293 293 293 292 292 297 303 306 308 315 320 323
233 236 240 241 242 241 239 239 238 237 237 236 234 234 233 232 232 230 231 233 231 230 233 237 239 237 235 234 234 233 227 222 226 228 223 221 222 219 213 215 233 244 246 249 255 256 252 248 249 252 256 259 260 261 259 254 251 249 246 246 249 252 255 260 267 275 279 278 281 289 292 291 295 300 302 304 304 300 297 299 305 309 313 321 326 329
234 236 237 239 241 241 239 239 237 236 237 238 235 234 233 234 235 234 234 235 234 235 234 234 238 239 238 238 237 236 235 234 232 230 228 227 225 219 212 213 227 237 242 246 249 252 252 249 249 251 253 255 257 258 257 255 254 252 250 250 252 255 259 263 270 277 280 283 289 294 295 296 299 300 302 305 307 305 300 301 308 314 318 323 328 330
233 235 236 238 241 242 240 241 240 237 236 238 238 237 235 233 234 235 236 236 236 237 237 236 238 241 242 240 238 238 239 239 237 233 229 229 229 221 212 214 224 230 235 239 239 242 247 248 247 249 252 254 253 252 252 252 250 250 251 252 254 258 263 267 273 279 281 285 290 294 298 302 304 303 303 304 303 303 303 306 311 317 319 321 323 325
230 232 234 236 238 241 241 241 242 242 240 238 239 239 237 234 233 233 234 236 236 237 238 239 240 242 243 242 240 240 241 238 237 236 232 229 227 220 213 216 220 222 227 235 235 235 240 245 246 247 248 249 248 246 247 248 249 252 256 258 260 262 266 272 278 282 284 287 290 293 299 304 304 302 302 300 298 300 305 310 314 317 317 317 318 319
229 230 233 235 236 239 241 241 241 242 239 236 236 238 238 237 236 235 233 234 235 236 237 239 240 241 242 242 240 240 241 238 237 237 234 227 222 218 216 219 220 218 220 229 232 231 236 242 244 242 240 242 243 244 245 247 250 255 259 261 263 265 268 275 283 287 291 297 300 301 305 306 303 300 300 300 300 303 307 311 315 317 317 316 315 315
229 230 232 235 236 238 240 241 240 238 236 237 240 243 244 242 241 239 238 236 236 236 237 238 239 241 242 241 238 238 240 238 235 234 230 221 216 215 216 219 220 216 213 217 225 229 233 237 238 236 234 235 239 243 245 247 249 254 257 260 263 266 270 276 283 287 294 304 309 309 310 309 306 304 304 306 307 308 309 311 313 315 316 316 315 315
230 230 233 235 236 238 238 239 240 239 240 244 246 247 248 247 244 242 240 237 236 237 238 238 239 239 240 239 236 235 236 234 230 228 224 215 209 208 209 215 216 211 206 210 221 229 233 233 231 231 232 235 240 243 245 247 249 253 257 260 264 267 271 275 279 283 289 299 305 308 309 310 308 308 309 310 310 310 311 311 311 313 313 313 313 313
228 230 233 235 237 239 239 239 241 243 243 245 245 244 243 243 242 239 236 234 234 236 236 236 237 237 239 240 238 236 236 234 230 225 220 213 208 203 203 211 212 206 204 209 218 228 233 232 230 233 233 234 238 242 245 248 251 254 257 262 266 269 272 276 279 281 285 290 296 301 306 307 307 307 307 308 309 309 310 309 309 311 311 311 311 310
227 230 233 235 238 240 241 241 243 244 243 244 244 241 238 239 239 238 236 235 236 237 237 236 235 234 236 238 237 236 236 235 231 224 217 212 208 202 201 207 208 205 205 209 215 225 232 231 231 236 239 238 240 243 246 250 253 257 262 267 270 273 276 279 282 284 284 287 291 295 299 302 303 303 303 304 305 306 306 305 304 306 307 308 308 306
227 229 231 233 237 240 242 243 244 246 245 244 243 241 240 241 241 240 240 239 237 238 238 237 235 233 233 234 234 234 234 234 230 222 215 212 208 201 200 205 207 208 208 209 213 223 231 232 231 235 241 244 247 250 253 256 259 262 268 272 272 274 278 280 282 284 287 289 290 292 294 297 298 298 298 299 300 301 302 302 301 301 302 303 305 304
226 229 231 233 236 239 242 244 245 247 246 243 241 242 242 243 241 239 240 241 242 240 239 237 233 230 228 229 230 232 233 232 227 220 214 210 205 201 201 205 209 212 213 212 214 220 227 231 231 232 237 242 247 251 255 259 262 264 268 272 274 275 279 280 279 282 287 290 290 290 292 294 294 293 294 296 296 298 298 298 297 297 297 300 303 303
224 229 231 234 237 239 241 243 244 245 245 241 239 239 239 239 237 235 236 241 245 245 241 235 231 227 223 225 227 229 229 228 223 218 213 208 205 203 203 205 210 214 215 215 217 221 225 228 230 231 234 238 243 248 253 257 263 266 269 273 276 277 280 282 280 280 285 288 289 289 289 289 290 290 291 292 293 294 294 293 293 294 295 299 301 300
224 229 231 234 237 239 242 244 244 245 246 245 243 241 240 238 236 235 237 239 242 245 243 236 231 226 222 222 224 226 227 224 219 216 213 208 205 204 204 206 210 214 217 218 219 223 227 229 231 233 235 238 242 247 252 256 261 265 268 272 275 277 281 284 282 280 282 285 286 284 284 286 289 290 290 289 289 290 291 291 292 293 294 297 298 297
224 228 230 232 236 238 241 243 243 245 245 246 247 246 243 239 237 236 239 239 238 241 243 238 232 228 224 222 223 225 224 220 216 216 213 207 204 204 206 209 212 216 220 222 222 225 229 232 234 236 239 242 246 249 253 256 260 264 267 270 273 276 278 280 280 280 281 283 284 282 282 286 289 290 289 288 287 289 291 291 291 291 293 295 295 294
225 227 230 232 233 236 239 241 242 244 244 244 247 247 243 239 236 235 238 239 237 238 239 237 233 231 227 225 224 224 220 215 215 217 214 208 205 206 209 213 216 219 223 225 226 229 231 234 236 239 241 245 248 251 254 257 259 263 266 268 269 271 273 276 278 279 280 281 282 283 284 287 290 291 291 290 289 291 292 291 290 290 290 291 290 290
223 225 229 231 232 234 239 242 243 243 242 243 245 245 241 238 236 235 235 235 235 234 235 237 236 233 230 228 226 222 216 214 216 219 217 212 209 211 214 216 219 222 226 228 229 231 234 236 238 241 244 247 250 252 255 258 260 262 265 267 268 267 268 273 276 277 279 280 282 283 285 287 291 293 293 292 293 293 292 290 289 288 287 287 286 286
222 225 230 233 235 236 239 241 243 242 241 243 244 240 236 233 232 231 229 229 231 231 230 232 234 232 230 228 223 217 213 215 218 220 219 216 214 216 220 222 223 225 229 231 233 234 236 238 241 244 247 250 252 254 257 260 263 266 267 270 271 267 263 266 271 274 278 281 283 285 288 290 291 291 290 291 292 291 289 288 286 285 284 284 285 285
220 223 228 231 233 234 235 238 240 239 237 238 238 234 230 227 225 225 225 225 228 228 224 224 227 229 227 222 215 211 213 216 219 220 220 219 218 219 222 225 226 229 233 235 237 240 241 242 244 245 247 249 250 253 255 258 263 266 267 270 274 269 262 264 271 275 278 281 283 286 290 291 290 288 288 289 289 287 286 284 283 283 284 285 286 286
219 221 226 229 231 235 238 240 241 237 232 230 229 225 223 221 218 218 219 221 223 222 218 216 219 224 223 217 211 212 216 218 219 220 221 220 220 220 221 224 227 230 233 236 238 241 243 242 242 241 243 246 249 252 255 259 264 268 267 269 273 271 265 266 272 275 277 279 281 285 288 288 286 286 287 287 286 284 283 282 281 283 285 286 287 289
219 221 226 229 232 236 239 242 241 235 226 222 221 220 219 217 214 213 213 215 215 214 211 210 212 216 218 216 214 216 219 220 220 219 217 217 218 219 220 223 226 229 232 234 236 238 239 238 237 237 240 245 249 254 259 263 266 269 270 271 274 275 271 269 270 273 276 277 279 283 286 285 283 284 285 284 282 282 282 282 283 285 287 288 290 292
220 222 225 229 233 236 237 238 236 230 221 216 216 215 215 214 212 211 210 210 208 205 203 204 206 209 213 216 217 218 219 220 221 218 214 213 217 219 221 224 227 230 233 234 235 237 238 236 236 238 242 248 252 256 261 264 265 267 270 272 274 275 273 270 270 273 275 277 279 282 283 281 280 282 282 281 281 281 282 285 287 288 289 290 291 293
219 220 222 227 232 236 237 235 229 220 214 212 213 213 212 211 210 209 208 208 206 202 198 198 201 204 209 213 215 215 215 218 221 220 218 219 223 225 226 228 232 234 236 236 237 238 238 238 238 240 244 248 253 257 260 263 265 267 270 271 272 273 272 271 272 274 276 278 280 281 278 276 277 279 279 280 281 282 283 286 287 287 287 289 290 293
216 217 220 226 231 236 237 232 223 214 208 207 211 213 211 208 207 207 206 206 206 204 201 199 200 203 205 206 207 209 212 217 220 222 224 227 231 233 234 235 237 237 238 239 241 242 243 242 241 240 241 245 251 257 260 263 265 266 268 269 270 272 273 272 272 274 275 277 277 276 274 274 276 278 278 279 280 282 283 285 285 285 287 288 291 293